Previsão horária em Abercorn

Hoje, 12 Abril, Segunda-feira

Tempo Temperatura Precipitação Vento Pressão Humidade
00:00 +9°C° 0 mm 2 m/s 737 mmHg 79%
01:00 +8°C° 0 mm 2 m/s 737 mmHg 80%
02:00 +8°C° 0 mm 2 m/s 737 mmHg 80%
03:00 +7°C° 0 mm 2 m/s 738 mmHg 81%
04:00 +7°C° 0 mm 2 m/s 738 mmHg 82%
05:00 +7°C° 0 mm 3 m/s 738 mmHg 79%
06:00 +8°C° 0 mm 3 m/s 739 mmHg 76%
07:00 +8°C° 0 mm 3 m/s 739 mmHg 73%
08:00 +10°C° 0 mm 4 m/s 739 mmHg 69%
09:00 +10°C° 0 mm 5 m/s 739 mmHg 66%
10:00 +11°C° 0 mm 6 m/s 739 mmHg 63%
11:00 +11°C° 0 mm 6 m/s 739 mmHg 64%
12:00 +10°C° 0 mm 6 m/s 739 mmHg 65%
13:00 +10°C° 0 mm 6 m/s 740 mmHg 66%
14:00 +10°C° 0 mm 5 m/s 740 mmHg 66%
15:00 +10°C° 0 mm 5 m/s 740 mmHg 65%
16:00 +11°C° 0 mm 4 m/s 740 mmHg 65%
17:00 +8°C° 0 mm 4 m/s 741 mmHg 67%
18:00 +8°C° 0 mm 3 m/s 741 mmHg 69%
19:00 +7°C° 0 mm 2 m/s 742 mmHg 72%
20:00 +6°C° 0 mm 2 m/s 742 mmHg 75%
21:00 +6°C° 0 mm 2 m/s 742 mmHg 78%
22:00 +5°C° 0 mm 2 m/s 743 mmHg 81%
23:00 +4°C° 0 mm 2 m/s 743 mmHg 82%

Amanhã, 13 Abril, Terça-feira

Tempo Temperatura Precipitação Vento Pressão Humidade
00:00 +5°C° 0 mm 1 m/s 743 mmHg 84%
01:00 +5°C° 0 mm 1 m/s 743 mmHg 86%
02:00 +5°C° 0 mm 1 m/s 743 mmHg 84%
03:00 +6°C° 0 mm 1 m/s 743 mmHg 83%
04:00 +6°C° 0 mm 1 m/s 744 mmHg 81%
05:00 +7°C° 0 mm 1 m/s 744 mmHg 81%
06:00 +7°C° 0 mm 1 m/s 744 mmHg 80%
07:00 +8°C° 0 mm 1 m/s 745 mmHg 79%
08:00 +10°C° 0 mm 1 m/s 745 mmHg 71%
09:00 +12°C° 0 mm 1 m/s 744 mmHg 64%
10:00 +14°C° 0 mm 1 m/s 744 mmHg 57%
11:00 +14°C° 0 mm 1 m/s 744 mmHg 55%
12:00 +15°C° 0 mm 1 m/s 744 mmHg 53%
13:00 +15°C° 0 mm 1 m/s 744 mmHg 51%
14:00 +15°C° 0 mm 1 m/s 744 mmHg 54%
15:00 +14°C° 0 mm 1 m/s 744 mmHg 57%
16:00 +14°C° 0 mm 1 m/s 744 mmHg 60%
17:00 +13°C° 0 mm 1 m/s 744 mmHg 64%
18:00 +12°C° 0 mm 1 m/s 744 mmHg 68%
19:00 +11°C° 0 mm 1 m/s 744 mmHg 71%
20:00 +11°C° 0 mm 1 m/s 744 mmHg 73%
21:00 +11°C° 0 mm 1 m/s 744 mmHg 75%
22:00 +10°C° 0 mm 1 m/s 744 mmHg 77%
23:00 +10°C° 0 mm 1 m/s 744 mmHg 78%

Depois de amanhã, 14 Abril, Quarta-feira

Tempo Temperatura Precipitação Vento Pressão Humidade
00:00 +10°C° 0 mm 1 m/s 744 mmHg 80%
01:00 +10°C° 0 mm 1 m/s 744 mmHg 81%
02:00 +9°C° 0 mm 1 m/s 744 mmHg 82%
03:00 +9°C° 0 mm 1 m/s 744 mmHg 83%
04:00 +9°C° 0 mm 1 m/s 744 mmHg 84%
05:00 +9°C° 0.1 mm 1 m/s 744 mmHg 86%
06:00 +9°C° 0.1 mm 1 m/s 744 mmHg 88%
07:00 +9°C° 0.1 mm 1 m/s 744 mmHg 89%
08:00 +9°C° 0.3 mm 1 m/s 744 mmHg 89%
09:00 +9°C° 0.3 mm 1 m/s 744 mmHg 89%
10:00 +9°C° 0.3 mm 1 m/s 744 mmHg 89%
11:00 +10°C° 0.1 mm 1 m/s 744 mmHg 88%
12:00 +10°C° 0.1 mm 1 m/s 743 mmHg 87%
13:00 +10°C° 0.1 mm 1 m/s 743 mmHg 86%
14:00 +11°C° 0 mm 1 m/s 743 mmHg 83%
15:00 +11°C° 0 mm 1 m/s 743 mmHg 80%
16:00 +12°C° 0 mm 2 m/s 742 mmHg 76%
17:00 +11°C° 0 mm 1 m/s 742 mmHg 81%
18:00 +9°C° 0 mm 1 m/s 742 mmHg 86%
19:00 +8°C° 0 mm 1 m/s 742 mmHg 91%
20:00 +8°C° 0 mm 1 m/s 742 mmHg 92%
21:00 +7°C° 0 mm 1 m/s 742 mmHg 92%
22:00 +6°C° 0 mm 2 m/s 742 mmHg 93%
23:00 +5°C° 0 mm 2 m/s 741 mmHg 93%

15 Abril, Quinta-feira

Tempo Temperatura Precipitação Vento Pressão Humidade
00:00 +5°C° 0 mm 2 m/s 741 mmHg 93%
01:00 +5°C° 0 mm 2 m/s 741 mmHg 93%
02:00 +5°C° 0 mm 2 m/s 741 mmHg 92%
03:00 +4°C° 0 mm 2 m/s 741 mmHg 92%
04:00 +4°C° 0 mm 2 m/s 741 mmHg 91%
05:00 +5°C° 0 mm 2 m/s 741 mmHg 86%
06:00 +7°C° 0 mm 2 m/s 741 mmHg 81%
07:00 +8°C° 0 mm 2 m/s 741 mmHg 76%
08:00 +9°C° 0 mm 2 m/s 741 mmHg 65%
09:00 +11°C° 0 mm 3 m/s 741 mmHg 54%
10:00 +13°C° 0 mm 3 m/s 741 mmHg 43%
11:00 +14°C° 0 mm 3 m/s 740 mmHg 40%
12:00 +16°C° 0 mm 3 m/s 740 mmHg 36%
13:00 +17°C° 0 mm 3 m/s 740 mmHg 33%
14:00 +17°C° 0 mm 3 m/s 740 mmHg 34%
15:00 +17°C° 0 mm 4 m/s 739 mmHg 36%
16:00 +15°C° 0 mm 4 m/s 739 mmHg 37%
17:00 +14°C° 0 mm 3 m/s 739 mmHg 43%
18:00 +12°C° 0 mm 3 m/s 739 mmHg 48%
19:00 +10°C° 0 mm 3 m/s 740 mmHg 54%
20:00 +9°C° 0 mm 2 m/s 740 mmHg 58%
21:00 +8°C° 0 mm 2 m/s 740 mmHg 61%
22:00 +7°C° 0 mm 2 m/s 740 mmHg 65%
23:00 +6°C° 0 mm 2 m/s 740 mmHg 67%

16 Abril, Sexta-feira

Tempo Temperatura Precipitação Vento Pressão Humidade
00:00 +5°C° 0 mm 2 m/s 740 mmHg 69%
01:00 +5°C° 0 mm 2 m/s 740 mmHg 71%
02:00 +5°C° 0 mm 1 m/s 740 mmHg 72%
03:00 +5°C° 0 mm 1 m/s 741 mmHg 74%
04:00 +5°C° 0 mm 1 m/s 741 mmHg 76%
05:00 +4°C° 0 mm 2 m/s 741 mmHg 73%
06:00 +5°C° 0 mm 2 m/s 741 mmHg 70%
07:00 +5°C° 0 mm 3 m/s 741 mmHg 67%
08:00 +7°C° 0 mm 3 m/s 741 mmHg 64%
09:00 +7°C° 0 mm 4 m/s 741 mmHg 61%
10:00 +8°C° 0 mm 4 m/s 741 mmHg 57%
11:00 +10°C° 0 mm 4 m/s 740 mmHg 55%
12:00 +10°C° 0 mm 5 m/s 740 mmHg 52%
13:00 +10°C° 0 mm 5 m/s 740 mmHg 50%
14:00 +11°C° 0 mm 4 m/s 740 mmHg 51%
15:00 +11°C° 0 mm 4 m/s 740 mmHg 53%
16:00 +11°C° 0 mm 4 m/s 740 mmHg 55%
17:00 +10°C° 0 mm 3 m/s 740 mmHg 59%
18:00 +9°C° 0 mm 3 m/s 740 mmHg 62%
19:00 +8°C° 0 mm 2 m/s 740 mmHg 65%
20:00 +8°C° 0 mm 2 m/s 740 mmHg 65%
21:00 +7°C° 0 mm 3 m/s 740 mmHg 64%
22:00 +7°C° 0 mm 3 m/s 740 mmHg 64%
23:00 +6°C° 0 mm 2 m/s 740 mmHg 67%

17 Abril, Sábado

Tempo Temperatura Precipitação Vento Pressão Humidade
00:00 +6°C° 0 mm 2 m/s 740 mmHg 70%
01:00 +6°C° 0 mm 1 m/s 740 mmHg 74%
02:00 +6°C° 0 mm 1 m/s 740 mmHg 77%
03:00 +5°C° 0 mm 1 m/s 740 mmHg 80%
04:00 +5°C° 0 mm 1 m/s 740 mmHg 83%
05:00 +4°C° 0 mm 2 m/s 740 mmHg 80%
06:00 +5°C° 0 mm 2 m/s 740 mmHg 78%
07:00 +5°C° 0 mm 2 m/s 740 mmHg 76%
08:00 +7°C° 0 mm 3 m/s 740 mmHg 70%
09:00 +8°C° 0 mm 3 m/s 740 mmHg 63%
10:00 +8°C° 0 mm 4 m/s 739 mmHg 57%
11:00 +10°C° 0 mm 4 m/s 739 mmHg 52%
12:00 +11°C° 0 mm 4 m/s 739 mmHg 47%
13:00 +12°C° 0 mm 4 m/s 738 mmHg 41%
14:00 +12°C° 0 mm 4 m/s 738 mmHg 41%
15:00 +12°C° 0 mm 4 m/s 738 mmHg 42%
16:00 +12°C° 0 mm 4 m/s 738 mmHg 42%
17:00 +10°C° 0 mm 3 m/s 738 mmHg 51%
18:00 +8°C° 0 mm 2 m/s 738 mmHg 60%
19:00 +8°C° 0 mm 1 m/s 739 mmHg 69%
20:00 +7°C° 0 mm 1 m/s 739 mmHg 72%
21:00 +6°C° 0 mm 1 m/s 739 mmHg 74%
22:00 +5°C° 0 mm 1 m/s 739 mmHg 76%
23:00 +4°C° 0 mm 0 m/s 739 mmHg 78%
Mostrar mais